N2XGL-1 Weather Reports


Display with metric or nautical units.
time (UTC)temp
F
wind
direction
speed
MPH
gust
MPH
rain 1hr
in
rain 24hr
in
rain mn
in
humidity
%
barometer
mb
20260902025905 71 0 1.0 2.0 0.00 0.02 0.00 50 1005.3
20260902024920 72 315 1.0 3.0 0.00 0.02 0.00 48 1005.1
20260902024100 73 338 1.0 2.0 0.00 0.02 0.00 49 1005.1
20260902023200 74 0 0.0 1.0 0.00 0.02 0.00 45 1004.7
20260902022206 75 45 1.0 4.0 0.00 0.02 0.00 43 1004.6
20260902021350 76 45 3.0 5.0 0.00 0.02 0.00 44 1004.5
20260902020525 76 22 2.0 4.0 0.00 0.02 0.00 42 1004.4
20260902015715 76 45 3.0 6.0 0.00 0.02 0.00 41 1004.2
20260902014915 77 45 3.0 7.0 0.00 0.02 0.00 43 1004.1
20260902013920 77 0 3.0 11.0 0.00 0.02 0.00 40 1004.0
20260902013000 78 0 3.0 9.0 0.00 0.02 0.00 41 1004.0
20260902012139 79 292 1.0 5.0 0.00 0.02 0.00 43 1003.9
20260902011326 80 248 2.0 5.0 0.00 0.02 0.00 38 1003.9
20260902010534 80 45 5.0 11.0 0.00 0.02 0.00 38 1003.7
20260902010446 80 45 5.0 11.0 0.00 0.02 0.00 38 1003.7
20260902005620 80 45 5.0 9.0 0.00 0.02 0.00 39 1003.5
20260902005003 80 22 4.0 7.0 0.00 0.02 0.00 39 1003.7
20260902004811 80 22 4.0 7.0 0.00 0.02 0.00 39 1003.7
20260902003910 80 0 3.0 6.0 0.00 0.02 0.00 40 1003.8
20260902003000 81 0 3.0 5.0 0.00 0.02 0.00 41 1004.0
20260902002040 81 22 2.0 4.0 0.00 0.02 0.00 39 1003.9
20260902001135 82 45 2.0 4.0 0.00 0.02 0.00 37 1003.9
20260902000306 82 0 3.0 6.0 0.00 0.02 0.00 36 1003.9
20260901235400 82 270 3.0 6.0 0.00 0.02 0.00 36 1003.8
20260901233640 83 68 1.0 3.0 0.00 0.02 0.00 32 1003.6
20260901233555 83 68 1.0 3.0 0.00 0.02 0.00 32 1003.6
20260901232635 84 68 3.0 6.0 0.00 0.02 0.00 33 1003.7
20260901231755 84 68 3.0 6.0 0.00 0.02 0.00 32 1003.7
20260901230825 84 90 3.0 6.0 0.00 0.02 0.00 33 1003.8
20260901224856 84 112 4.0 9.0 0.00 0.02 0.00 36 1003.7
20260901223940 84 45 3.0 7.0 0.00 0.02 0.00 35 1003.9
20260901223106 84 45 4.0 10.0 0.00 0.02 0.00 33 1003.9
20260901222236 84 45 4.0 9.0 0.00 0.02 0.00 33 1003.9
20260901221241 84 68 3.0 6.0 0.00 0.02 0.00 34 1004.0
20260901215630 84 112 4.0 9.0 0.00 0.02 0.00 34 1004.1
20260901214825 84 90 4.0 9.0 0.00 0.02 0.00 36 1004.2
20260901213950 84 68 3.0 7.0 0.00 0.02 0.00 36 1004.2
20260901213110 85 90 2.0 6.0 0.00 0.02 0.00 35 1004.3
20260901210255 87 338 5.0 12.0 0.00 0.02 0.00 33 1004.5
20260901205430 87 270 6.0 13.0 0.00 0.02 0.00 29 1004.6
20260901204656 86 292 6.0 11.0 0.00 0.02 0.00 31 1004.8
20260901204605 86 292 6.0 11.0 0.00 0.02 0.00 31 1004.8
20260901203606 85 292 6.0 15.0 0.00 0.02 0.00 36 1004.8
20260901202636 86 270 8.0 17.0 0.00 0.02 0.00 35 1005.0
20260901201830 88 270 9.0 16.0 0.00 0.02 0.00 32 1004.8
20260901200845 88 248 3.0 9.0 0.00 0.02 0.00 32 1005.0
20260901195940 88 202 3.0 7.0 0.00 0.02 0.00 30 1005.1
20260901194956 83 158 3.0 5.0 0.00 0.02 0.00 42 1005.1
20260901194055 85 202 3.0 5.0 0.00 0.02 0.00 36 1005.1
20260901193116 87 248 7.0 14.0 0.00 0.02 0.00 30 1005.1
20260901192259 87 248 4.0 8.0 0.00 0.02 0.00 28 1005.2
20260901191436 85 68 4.0 10.0 0.00 0.02 0.00 34 1005.2
20260901190445 84 315 2.0 6.0 0.00 0.02 0.00 42 1005.4
20260901185555 84 248 2.0 6.0 0.00 0.02 0.00 45 1005.4
20260901184838 84 68 3.0 5.0 0.00 0.02 0.00 43 1005.6
20260901184705 84 68 3.0 5.0 0.00 0.02 0.00 43 1005.6
20260901183710 82 45 2.0 6.0 0.00 0.02 0.00 43 1005.8
20260901182801 81 45 5.0 11.0 0.00 0.02 0.00 46 1005.8
20260901181840 80 68 5.0 11.0 0.00 0.02 0.00 49 1006.1
20260901180955 81 68 5.0 13.0 0.00 0.02 0.00 50 1006.4
20260901175955 81 22 4.0 7.0 0.00 0.02 0.00 48 1006.5
20260901174956 80 68 3.0 7.0 0.00 0.02 0.00 50 1006.7
20260901174115 80 112 4.0 10.0 0.00 0.02 0.00 51 1006.6
20260901173210 79 90 4.0 6.0 0.00 0.02 0.00 56 1006.8
20260901172351 78 112 2.0 5.0 0.00 0.02 0.00 51 1007.0
20260901171511 76 135 1.0 4.0 0.00 0.02 0.00 54 1007.2
20260901171355 76 135 1.0 4.0 0.00 0.02 0.00 54 1007.2
20260901170656 75 158 2.0 4.0 0.00 0.02 0.00 57 1007.2
20260901170556 75 158 2.0 4.0 0.00 0.02 0.00 57 1007.2
20260901165733 75 158 2.0 5.0 0.00 0.02 0.00 62 1007.2
20260901164830 74 0 2.0 3.0 0.00 0.02 0.00 63 1007.3
20260901164201 73 68 1.0 3.0 0.00 0.02 0.00 69 1007.4
20260901163955 73 68 1.0 3.0 0.00 0.02 0.00 69 1007.4
20260901163131 72 45 1.0 4.0 0.00 0.02 0.00 69 1007.3
20260901162155 69 45 2.0 3.0 0.00 0.02 0.00 70 1007.5
20260901161441 68 90 2.0 5.0 0.00 0.02 0.00 73 1007.4
20260901161350 68 90 2.0 5.0 0.00 0.02 0.00 73 1007.4
20260901160446 67 22 2.0 5.0 0.00 0.02 0.00 78 1007.4
20260901155646 66 0 1.0 3.0 0.00 0.02 0.00 79 1007.6
20260901154836 66 338 1.0 3.0 0.00 0.02 0.00 81 1007.6
20260901153845 65 225 1.0 3.0 0.00 0.02 0.00 85 1007.7
20260901153020 64 0 2.0 5.0 0.00 0.02 0.00 86 1007.7
20260901152238 64 225 1.0 2.0 0.00 0.02 0.00 87 1007.8
20260901152205 64 225 1.0 2.0 0.00 0.02 0.00 87 1007.8
20260901150355 63 0 0.0 1.0 0.00 0.02 0.00 90 1007.9
20260901145450 62 0 0.0 0.0 0.00 0.02 0.00 91 1007.8
20260901144638 62 0 0.0 2.0 0.00 0.02 0.00 91 1007.7
20260901143935 62 0 0.0 2.0 0.00 0.02 0.00 92 1008.0
20260901143810 62 0 0.0 2.0 0.00 0.02 0.00 92 1008.0
20260901142938 61 135 1.0 2.0 0.00 0.02 0.00 92 1007.8
20260901142905 61 135 1.0 2.0 0.00 0.02 0.00 92 1007.8
20260901142026 61 0 1.0 3.0 0.00 0.02 0.00 92 1007.9
20260901141111 61 112 1.0 2.0 0.00 0.02 0.00 92 1007.8
20260901140241 61 202 2.0 3.0 0.00 0.02 0.00 93 1007.6
20260901135240 60 135 1.0 2.0 0.00 0.02 0.00 93 1007.5
20260901134426 60 0 0.0 1.0 0.00 0.02 0.00 93 1007.4
20260901133451 60 0 0.0 0.0 0.00 0.02 0.00 92 1007.2
20260901132535 60 0 0.0 1.0 0.00 0.02 0.00 92 1007.1
20260901131648 59 135 1.0 3.0 0.00 0.02 0.00 92 1007.0
20260901130735 59 0 0.0 0.0 0.00 0.02 0.00 92 1006.9
20260901125926 59 135 1.0 2.0 0.00 0.02 0.00 91 1006.6
20260901125129 60 158 1.0 2.0 0.00 0.02 0.00 92 1006.7
20260901125035 60 158 1.0 2.0 0.00 0.02 0.00 92 1006.7
20260901123155 60 292 1.0 1.0 0.00 0.02 0.00 92 1006.4
20260901122320 60 292 1.0 1.0 0.00 0.02 0.00 92 1006.4
20260901121410 60 0 0.0 0.0 0.00 0.02 0.00 92 1006.5
20260901120536 60 0 0.0 0.0 0.00 0.02 0.00 92 1006.5
20260901120414 60 0 0.0 0.0 0.00 0.02 0.00 92 1006.5
20260901115605 60 0 0.0 0.0 0.00 0.02 0.00 92 1006.4
20260901114725 60 0 0.0 0.0 0.00 0.02 0.00 92 1006.6
20260901113741 60 0 0.0 1.0 0.00 0.02 0.00 92 1006.5
20260901112101 60 0 0.0 0.0 0.00 0.02 0.00 91 1006.6
20260901111956 60 0 0.0 0.0 0.00 0.02 0.00 91 1006.6
20260901110955 60 0 0.0 0.0 0.00 0.02 0.00 91 1006.6
20260901110125 60 0 0.0 1.0 0.00 0.02 0.00 91 1006.6
20260901105140 60 0 0.0 1.0 0.00 0.02 0.00 91 1006.6
20260901104211 60 292 1.0 2.0 0.00 0.02 0.00 91 1006.6
20260901103410 60 0 0.0 0.0 0.00 0.02 0.00 91 1006.7
20260901102516 60 0 0.0 0.0 0.00 0.02 0.00 90 1006.9
20260901101539 60 0 0.0 0.0 0.00 0.02 0.00 90 1007.1
20260901100630 61 0 0.0 1.0 0.00 0.02 0.00 90 1007.0
20260901095659 61 0 0.0 1.0 0.00 0.02 0.00 90 1006.9
20260901094928 61 292 1.0 2.0 0.00 0.02 0.00 90 1007.2
20260901094740 61 292 1.0 2.0 0.00 0.02 0.00 90 1007.2
20260901094159 61 0 0.0 0.0 0.00 0.02 0.00 90 1007.2
20260901093935 61 0 0.0 0.0 0.00 0.02 0.00 90 1007.2
20260901093005 61 0 0.0 1.0 0.00 0.02 0.00 91 1007.2
20260901092151 62 0 0.0 2.0 0.00 0.02 0.00 91 1007.3
20260901092031 62 0 0.0 2.0 0.00 0.02 0.00 91 1007.3
20260901091441 62 0 0.0 1.0 0.00 0.02 0.00 91 1007.3
20260901091155 62 0 0.0 1.0 0.00 0.02 0.00 91 1007.3
20260901090348 62 0 0.0 0.0 0.00 0.02 0.00 91 1007.4
20260901090306 62 0 0.0 0.0 0.00 0.02 0.00 91 1007.4
20260901085500 62 0 0.0 2.0 0.00 0.02 0.00 91 1007.3
20260901084520 62 0 0.0 1.0 0.00 0.02 0.00 91 1007.4
20260901083620 62 0 0.0 1.0 0.00 0.02 0.00 90 1007.5
20260901082751 62 225 2.0 4.0 0.00 0.02 0.00 90 1007.6
20260901081915 62 0 0.0 1.0 0.00 0.02 0.00 90 1007.9
20260901081045 62 0 0.0 0.0 0.00 0.02 0.00 90 1007.7
20260901080135 62 270 2.0 4.0 0.00 0.02 0.00 90 1008.0
20260901075215 62 0 0.0 1.0 0.00 0.02 0.00 90 1008.1
20260901074220 63 292 1.0 2.0 0.00 0.02 0.00 90 1008.3
20260901073420 63 292 1.0 2.0 0.01 0.02 0.00 90 1008.5
20260901072446 63 0 0.0 1.0 0.01 0.02 0.00 89 1008.4
20260901071751 63 0 0.0 1.0 0.01 0.02 0.00 89 1008.3
20260901071640 63 0 0.0 1.0 0.01 0.02 0.00 89 1008.3
20260901070859 63 90 1.0 1.0 0.01 0.02 0.00 89 1008.1
20260901070819 63 90 1.0 1.0 0.01 0.02 0.00 89 1008.1
20260901065855 63 90 1.0 3.0 0.01 0.02 0.00 89 1008.4
20260901064914 63 135 1.0 2.0 0.01 0.02 0.00 89 1008.3
20260901064121 63 0 0.0 2.0 0.01 0.02 0.00 89 1007.8
20260901064025 63 0 0.0 2.0 0.01 0.02 0.00 89 1007.8
20260901063202 63 158 2.0 3.0 0.00 0.01 0.00 88 1008.5
20260901063115 63 158 2.0 3.0 0.00 0.01 0.00 88 1008.5
20260901062216 63 225 1.0 2.0 0.00 0.01 0.00 88 1008.0
20260901061245 63 248 1.0 2.0 0.00 0.01 0.00 88 1007.8
20260901060330 63 180 1.0 2.0 0.00 0.01 0.00 88 1007.8
20260901055516 63 0 0.0 0.0 0.00 0.01 0.00 87 1007.7
20260901054646 63 0 0.0 2.0 0.00 0.01 0.00 87 1007.7
20260901053845 63 0 0.0 1.0 0.00 0.01 0.00 86 1007.9
20260901052955 62 248 1.0 2.0 0.00 0.01 0.00 86 1008.2
20260901052201 62 0 0.0 2.0 0.00 0.01 0.00 85 1008.2
20260901052035 62 0 0.0 2.0 0.00 0.01 0.00 85 1008.2
20260901051421 63 0 0.0 1.0 0.00 0.01 0.00 85 1008.2
20260901051201 63 0 0.0 1.0 0.00 0.01 0.00 85 1008.2
20260901050215 63 248 1.0 2.0 0.00 0.01 0.00 85 1008.2
20260901045306 63 0 0.0 2.0 0.00 0.01 0.00 85 1008.2
20260901044502 63 292 1.0 4.0 0.00 0.01 0.00 84 1008.1
20260901044410 63 292 1.0 4.0 0.00 0.01 0.00 84 1008.1
20260901043546 63 0 2.0 4.0 0.00 0.01 0.00 85 1007.8
20260901042630 63 0 3.0 7.0 0.01 0.01 0.00 84 1007.9
20260901041635 64 45 2.0 2.0 0.01 0.01 0.00 84 1007.9
20260901040906 64 338 1.0 2.0 0.01 0.01 0.00 84 1008.5
20260901040755 64 338 1.0 2.0 0.01 0.01 0.00 84 1008.5
20260901035826 65 0 1.0 3.0 0.01 0.01 0.00 83 1009.0
20260901034830 65 180 1.0 3.0 0.01 0.01 0.00 80 1009.4
20260901033906 66 180 1.0 3.0 0.01 0.01 0.00 78 1009.9
20260901033159 67 180 3.0 7.0 0.01 0.01 0.00 76 1010.0
20260901033030 67 180 3.0 7.0 0.01 0.01 0.00 76 1010.0
20260901032230 68 180 6.0 12.0 0.00 0.00 0.00 72 1010.0
20260901031416 70 180 7.0 15.0 0.00 0.00 0.00 65 1009.9
20260901030546 71 158 10.0 22.0 0.00 0.00 0.00 62 1009.7